GW5385 Weather Reports


time (UTC)temp
C
wind
direction
speed
KPH
gust
KPH
rain 1hr
cm
rain 24hr
cm
rain mn
cm
humidity
%
barometer
mb
20260507224530 21 344 8.0 17.7 0.00 0.00 0.00 29 1012.8
20260507223025 19 328 8.0 25.7 0.00 0.00 0.00 30 1013.0
20260507221523 20 316 6.4 27.4 0.00 0.00 0.00 31 1013.1
20260507220022 20 296 8.0 17.7 0.00 0.00 0.00 30 1013.0
20260507214525 20 333 11.3 24.1 0.00 0.00 0.00 29 1013.1
20260507213020 21 345 14.5 24.1 0.00 0.00 0.00 29 1013.2
20260507211518 20 328 14.5 25.7 0.00 0.00 0.00 29 1013.3
20260507210016 20 314 8.0 19.3 0.00 0.00 0.00 29 1013.5
20260507204515 20 328 8.0 32.2 0.00 0.00 0.00 31 1013.5
20260507203017 20 26 12.9 29.0 0.00 0.00 0.00 30 1013.7
20260507203015 20 354 12.9 29.0 0.00 0.00 0.00 30 1013.7
20260507201512 19 289 11.3 22.5 0.00 0.00 0.00 32 1013.6
20260507200011 18 348 14.5 29.0 0.00 0.00 0.00 33 1013.7
20260507194509 18 349 16.1 27.4 0.00 0.00 0.00 33 1013.6
20260507193008 18 311 8.0 17.7 0.00 0.00 0.00 34 1013.4
20260507191504 20 331 4.8 22.5 0.00 0.00 0.00 33 1013.3
20260507190003 18 333 6.4 29.0 0.00 0.00 0.00 35 1013.5
20260507184501 18 290 3.2 19.3 0.00 0.00 0.00 36 1013.5
20260507183100 17 323 8.0 24.1 0.00 0.00 0.00 37 1013.7
20260507181558 18 322 17.7 32.2 0.00 0.00 0.00 35 1013.7
20260507180057 18 342 12.9 24.1 0.00 0.00 0.00 36 1013.8
20260507174605 18 337 8.0 20.9 0.00 0.00 0.00 37 1014.0
20260507173055 18 338 12.9 29.0 0.00 0.00 0.00 36 1014.1
20260507171523 18 328 14.5 32.2 0.00 0.00 0.00 36 1014.2
20260507170024 18 356 16.1 30.6 0.00 0.00 0.00 38 1014.2
20260507164520 18 352 12.9 29.0 0.00 0.00 0.00 38 1014.3
20260507163017 17 331 16.1 29.0 0.00 0.00 0.00 39 1014.1
20260507161522 17 347 16.1 30.6 0.00 0.00 0.00 39 1014.1
20260507160018 17 30 8.0 30.6 0.00 0.00 0.00 39 1014.0
20260507154511 17 323 4.8 12.9 0.00 0.00 0.00 40 1014.2
20260507153008 16 341 4.8 14.5 0.00 0.00 0.00 41 1014.1
20260507151506 16 300 3.2 8.0 0.00 0.00 0.00 41 1014.1
20260507150001 15 285 1.6 8.0 0.00 0.00 0.00 43 1014.2
20260507144615 14 306 0.0 4.8 0.00 0.00 0.00 45 1014.2
20260507143057 13 280 0.0 9.7 0.00 0.00 0.00 44 1014.1
20260507141615 13 343 3.2 16.1 0.00 0.00 0.00 43 1014.1
20260507140050 12 343 8.0 16.1 0.00 0.00 0.00 47 1014.2
20260507134547 10 38 3.2 6.4 0.00 0.00 0.00 55 1014.0
20260507133042 9 23 0.0 1.6 0.00 0.00 0.00 58 1013.8
20260507131543 8 60 0.0 1.6 0.00 0.00 0.00 58 1013.7
20260507130039 8 345 3.2 6.4 0.00 0.00 0.00 58 1013.6
20260507124535 7 333 3.2 8.0 0.00 0.00 0.00 59 1013.4
20260507123034 7 306 1.6 4.8 0.00 0.00 0.00 60 1013.3
20260507121532 6 290 0.0 3.2 0.00 0.00 0.00 60 1013.1
20260507120032 6 266 0.0 3.2 0.00 0.00 0.00 61 1013.0
20260507114601 6 305 1.6 4.8 0.00 0.00 0.00 61 1012.9
20260507113058 6 307 0.0 4.8 0.00 0.00 0.00 58 1012.9
20260507111556 6 302 0.0 1.6 0.00 0.00 0.00 56 1012.8
20260507110055 6 284 0.0 0.0 0.00 0.00 0.00 58 1012.7
20260507104556 6 284 0.0 3.2 0.00 0.00 0.00 56 1012.5
20260507103053 6 325 0.0 1.6 0.00 0.00 0.00 55 1012.4
20260507101552 6 325 0.0 4.8 0.00 0.00 0.00 56 1012.3
20260507100049 5 25 6.4 9.7 0.00 0.00 0.00 58 1012.4
20260507094549 6 300 0.0 6.4 0.00 0.00 0.00 57 1012.1
20260507093048 6 248 0.0 4.8 0.00 0.00 0.00 57 1011.9
20260507091545 6 25 0.0 4.8 0.00 0.00 0.00 56 1011.9
20260507090043 6 36 6.4 12.9 0.00 0.00 0.00 55 1012.2
20260507084544 6 34 8.0 12.9 0.00 0.00 0.00 57 1011.9
20260507083039 6 27 6.4 9.7 0.00 0.00 0.00 58 1011.4
20260507081535 6 7 1.6 4.8 0.00 0.00 0.00 56 1011.4
20260507080039 6 29 4.8 8.0 0.00 0.00 0.00 56 1011.4
20260507074532 5 31 3.2 11.3 0.00 0.00 0.00 55 1011.6
20260507073029 6 307 0.0 1.6 0.00 0.00 0.00 53 1011.3
20260507071528 6 39 3.2 6.4 0.00 0.00 0.00 51 1011.2
20260507070022 7 63 3.2 4.8 0.00 0.00 0.00 49 1011.0
20260507064520 8 32 8.0 14.5 0.00 0.00 0.00 48 1011.1
20260507064517 8 33 8.0 14.5 0.00 0.00 0.00 48 1011.1
20260507063014 8 15 8.0 12.9 0.00 0.00 0.00 46 1011.0
20260507061509 10 29 9.7 22.5 0.00 0.00 0.00 44 1010.9
20260507054602 11 59 19.3 37.0 0.00 0.00 0.00 35 1011.0
20260507053058 13 46 19.3 27.4 0.00 0.00 0.00 34 1010.8
20260507051554 14 86 11.3 17.7 0.00 0.00 0.00 31 1009.8
20260507050051 13 79 1.6 8.0 0.00 0.00 0.00 37 1009.7
20260507044559 13 20 3.2 8.0 0.00 0.00 0.00 38 1009.7
20260507043053 13 28 4.8 8.0 0.00 0.00 0.00 38 1009.6
20260507041550 13 7 0.0 4.8 0.00 0.00 0.00 43 1009.6
20260507040046 15 229 0.0 3.2 0.00 0.00 0.00 41 1009.4
20260507034548 15 220 1.6 3.2 0.00 0.00 0.00 40 1009.4
20260507033046 16 219 3.2 9.7 0.00 0.00 0.00 39 1009.4
20260507031546 17 251 6.4 12.9 0.00 0.00 0.00 38 1009.4
20260507030042 17 241 6.4 16.1 0.00 0.00 0.00 35 1009.9
20260507024544 13 248 1.6 6.4 0.00 0.00 0.00 35 1009.9
20260507023040 15 301 1.6 3.2 0.00 0.00 0.00 34 1009.3
20260507021541 17 359 1.6 4.8 0.00 0.00 0.00 28 1008.9
20260507020045 17 4 1.6 3.2 0.00 0.00 0.00 28 1008.9
20260507014537 19 14 3.2 8.0 0.00 0.00 0.00 26 1008.9
20260507013036 20 13 3.2 8.0 0.00 0.00 0.00 24 1009.0
20260507011535 20 355 3.2 14.5 0.00 0.00 0.00 23 1009.1
20260507010032 21 348 6.4 17.7 0.00 0.00 0.00 22 1009.1
20260507004533 21 333 8.0 22.5 0.00 0.00 0.00 22 1009.2
20260507003032 21 29 16.1 25.7 0.00 0.00 0.00 22 1009.4
20260507001535 22 328 11.3 20.9 0.00 0.00 0.00 22 1009.4
20260507000025 21 12 9.7 22.5 0.00 0.00 0.00 22 1009.5
20260506234523 21 324 11.3 22.5 0.00 0.00 0.00 23 1009.6
20260506233022 21 317 9.7 22.5 0.00 0.00 0.00 22 1009.5
20260506231520 21 307 12.9 20.9 0.00 0.00 0.00 22 1009.6
20260506230017 22 300 8.0 17.7 0.00 0.00 0.00 23 1009.7